Weather in Sorochkino

Russia / Tyumen Oblast     56°58′48″N   68°50′55″E
temp.,
°C
wind,
m/s
gust,
m/s
humid.,
%
clouds,
%
prec.,
mm/h
press.,
hPa
HPBL,
m
16 october, sat
sat1623:00+7s411805 0.0 1030232
02:00+5s4127974 0.0 1029244
05:00+5s4127692 0.0 1027238
08:00+5s5137447 0.0 1026295
11:00+10s61255100 0.0 1024519
14:00+12s61147100 0.0 1022851
17:00+10ssw51155100 0.0 1021596
20:00+9s51160100 0.0 1021470
17 october, sun
sun1723:00+8ssw51078100 0.6 1020813
02:00+7wsw478493 0.1 1020756
05:00+5sw3791100 0.1 1021200
08:00+6sw3778100 0.0 1021319
11:00+8wsw476491 0.0 1021646
14:00+10wsw575134 0.0 10201403
17:00+8wsw376070 0.0 1020150
20:00+5sw3770100 0.0 1020140
18 october, mon
mon1823:00+4ssw38725 0.0 1020133
02:00+3sw37749 0.0 1020121
05:00+3sw377471 0.0 1020117
08:00+3sw387154 0.0 1020161
11:00+8sw475684 0.0 1019342
14:00+12ssw4755100 0.0 1018616
17:00+9s386873 0.0 1018207
20:00+7s396597 0.0 1017152
19 october, tue
tue1923:00+8ssw41156100 0.0 1017212
02:00+7ssw3961100 0.0 1017176
05:00+7ssw41061100 0.0 1017214
08:00+7ssw3960100 0.0 1017193
11:00+11ssw51145100 0.0 1016409
14:00+13ssw51240100 0.0 1015689
17:00+11ssw51247100 0.0 1015457
20:00+10ssw51456100 0.0 1014400
20 october, wed
wed2023:00+10ssw51356100 0.0 1014350
02:00+9s41157100 0.0 1013265
05:00+7s41061100 0.0 1011209
08:00+7s41059100 0.0 1010254
11:00+10s5945100 0.0 1009418
14:00+12ssw573780 0.0 1008622
17:00+10s3745100 0.0 1007199
20:00+8ssw3752100 0.0 1007128